Temperature
19 19 19 19 19 19 18 18 18 18 18 18 18 18 18 17 17 17 17 17 17 17 17 16 17 17 16 16 16 16 16 16 16 16 16 16 15 15 15 15 15 15 15
19 19 19 19 18 18 18 18 18 18 18 18 18 18 17 17 17 17 17 17 17 17 16 16 16 16 16 16 16 16 16 16 16 16 16 16 15 15 15 15 14 14 14
19 19 19 19 19 18 18 18 18 18 18 18 17 17 17 17 17 17 17 17 16 16 16 16 16 16 16 16 16 16 16 16 16 15 15 15 15 15 15 15 14 14 14
19 19 19 19 19 19 18 18 18 18 18 17 17 17 17 17 17 17 17 17 17 16 16 16 16 16 16 16 16 16 16 16 15 15 15 15 15 15 15 14 14 14 14
19 19 19 19 19 19 18 18 18 18 17 17 17 17 17 17 17 17 17 17 16 16 16 16 16 16 16 16 16 16 15 15 15 15 15 15 15 15 14 14 14 14 14
19 19 18 18 19 18 18 18 18 17 17 17 17 17 17 17 17 17 17 17 16 16 16 16 16 16 16 16 16 16 15 15 15 15 15 15 14 14 14 14 14 14 13
19 19 18 18 18 18 18 18 17 17 17 17 17 17 17 17 17 17 17 16 16 16 16 16 16 16 16 16 16 16 15 15 15 15 15 15 15 14 14 14 14 13 13
19 18 18 18 18 18 17 17 17 17 17 16 16 16 16 16 16 16 16 16 16 16 16 16 16 16 15 15 15 15 15 15 15 15 15 15 14 14 14 14 14 13 13
18 18 18 18 17 17 17 17 17 17 16 16 16 16 16 16 16 16 16 15 15 15 15 15 15 15 15 15 15 15 15 15 15 15 15 15 15 14 14 13 13 13 13
17 17 17 17 17 17 17 17 17 17 16 16 16 16 16 16 16 16 15 15 15 15 15 15 15 15 15 15 15 15 15 15 14 14 14 14 14 14 14 13 13 13 13
17 17 17 17 17 17 16 16 16 16 16 16 15 15 15 15 15 15 15 15 15 14 15 15 15 15 15 15 14 14 14 14 14 14 14 14 14 13 13 13 13 13 13
17 16 16 16 16 16 16 16 15 15 15 15 15 15 15 15 15 15 15 15 14 14 14 14 14 14 14 14 14 14 14 14 14 13 13 13 13 13 13 13 13 13 13
16 16 16 16 16 15 15 15 15 15 15 15 15 15 14 14 14 15 14 14 14 14 14 14 14 14 14 14 14 14 14 13 13 13 13 13 13 13 13 12 12 12 12
16 15 15 15 15 15 15 15 14 14 14 14 14 14 14 14 14 14 14 14 14 14 13 14 14 14 13 13 13 13 13 13 13 13 13 13 12 12 12 12 12 12 12
15 15 14 14 15 14 14 14 14 14 14 14 14 14 14 13 13 13 13 13 13 13 13 13 13 13 13 13 12 12 12 12 12 12 12 12 12 12 12 12 12 12 12
14 14 14 14 14 14 14 14 13 13 13 13 13 13 13 13 13 13 13 13 13 13 12 12 12 12 12 12 12 12 12 12 12 12 12 12 12 12 11 11 11 11 11
13 13 14 14 14 13 13 13 13 13 13 13 13 13 13 13 13 13 12 12 12 12 12 12 12 11 11 11 11 11 11 11 11 11 11 11 11 11 11 11 11 11 11
13 13 13 13 13 13 13 13 13 13 13 13 13 12 12 12 12 12 12 12 12 12 12 12 11 11 11 11 11 11 11 11 11 11 11 11 11 11 11 11 11 11 11
13 13 12 12 12 12 12 12 12 12 12 12 12 12 12 12 11 11 11 11 11 11 11 11 11 11 11 11 10 10 10 11 10 10 10 10 10 10 10 11 11 10 10
12 12 12 12 12 12 12 12 12 11 11 11 11 11 11 11 11 11 11 10 10 10 10 10 10 10 10 10 10 10 10 10 10 10 10 10 10 10 10 10 10 10 10
12 12 12 12 12 11 11 11 11 11 11 11 11 11 10 10 10 10 10 10 10 10 10 10 10 10 9 9 9 9 9 10 10 10 10 9 10 10 10 10 10 10 10
12 12 11 11 11 11 11 11 10 10 10 10 10 10 10 10 10 10 9 9 9 9 9 9 9 9 9 9 9 9 9 9 9 9 9 9 9 9 9 9 9 9 9
11 11 11 11 11 10 10 10 10 10 10 9 9 9 9 9 9 9 9 9 9 8 8 8 8 8 8 8 8 8 8 8 8 8 8 8 8 9 9 9 9 9 9
11 11 11 10 10 10 10 10 10 9 9 9 9 9 9 9 9 9 8 8 8 8 8 8 8 8 8 8 7 7 7 7 7 7 7 8 8 8 8 8 8 8 8
10 10 10 10 10 10 10 9 9 9 9 9 9 8 8 8 8 8 8 8 8 7 7 7 7 7 7 7 7 7 7 7 7 7 7 7 7 7 7 7 7 7 8
10 10 10 10 9 9 9 9 9 9 8 8 8 8 8 8 8 8 7 7 7 7 7 7 7 6 7 7 7 7 7 7 7 7 6 6 7 7 7 7 7 7 7
Wind_Speed
9 9 8 7 7 7 6 6 6 5 5 5 5 5 5 5 5 5 6 5 6 6 6 6 7 7 6 5 5 6 6 6 6 4 3 3 4 5 5 6 6 7 7
9 8 8 7 7 7 6 6 6 5 5 5 5 5 6 5 5 6 6 6 7 7 7 7 7 6 6 6 6 6 5 5 6 6 4 4 5 6 5 6 6 6 6
9 9 8 7 7 7 6 6 6 5 5 5 5 5 5 5 5 6 6 7 7 7 7 7 7 7 7 6 6 6 6 6 6 6 6 4 5 5 6 6 7 6 7
9 9 8 8 8 7 7 6 6 6 5 5 5 5 5 5 6 6 6 6 7 6 7 7 7 7 8 8 7 7 7 6 6 7 6 5 5 5 5 6 6 6 6
8 8 8 8 7 7 6 6 6 6 6 6 5 5 5 5 5 6 6 7 7 7 7 7 7 6 6 7 7 6 6 6 6 6 6 5 5 5 6 6 6 6 6
8 8 7 7 6 7 6 6 6 6 5 6 6 6 6 5 3 3 6 6 6 7 7 7 7 6 7 7 7 6 6 7 7 7 6 6 7 7 6 6 6 6 6
7 7 6 6 6 6 6 6 5 5 5 6 6 6 6 5 4 5 6 7 7 7 7 7 6 5 6 6 7 8 8 8 8 9 9 9 8 8 8 9 8 8 8
7 6 6 7 7 6 6 6 5 5 4 4 5 5 5 5 4 5 6 8 8 7 7 7 7 7 6 6 7 8 9 9 10 10 10 10 9 7 8 9 9 9 9
6 6 6 6 6 6 6 5 5 4 4 4 4 5 5 4 3 4 6 6 6 7 7 7 7 7 5 5 8 8 9 9 9 10 10 9 7 8 8 7 8 8 9
5 5 5 5 5 5 5 4 4 4 4 4 4 4 5 4 2 4 6 6 6 7 6 6 6 6 5 6 9 9 10 9 8 8 9 10 11 11 12 11 10 10 9
3 3 3 4 4 4 3 3 3 4 4 4 4 4 4 4 4 5 5 5 6 6 6 6 5 5 6 7 9 9 9 9 9 9 8 8 9 8 9 10 10 10 10
3 3 3 3 2 3 3 3 3 3 4 4 4 3 3 3 3 4 6 7 7 6 6 6 4 3 6 8 8 7 8 8 8 8 8 8 8 8 8 9 10 12 11
3 3 3 2 2 2 2 3 3 3 3 3 3 3 3 2 2 5 6 7 8 7 6 5 5 5 6 7 8 9 8 7 7 7 8 8 7 7 7 7 9 10 12
3 3 3 3 2 2 2 2 2 2 2 2 3 3 3 3 2 2 2 3 4 6 6 5 7 9 8 6 6 6 6 6 7 7 8 7 6 6 7 7 8 8 8
2 2 3 3 2 3 2 1 1 0 1 2 3 3 4 4 3 4 3 3 4 4 4 5 5 4 4 4 5 5 5 6 7 7 7 7 7 7 7 7 7 7 8
1 2 1 1 2 2 2 1 2 1 2 1 2 4 3 2 2 3 4 4 5 4 4 4 5 5 5 5 5 5 5 6 6 6 7 7 7 7 7 6 7 8 9
1 1 1 0 0 1 1 1 1 1 3 3 3 3 3 3 3 3 4 4 4 4 3 4 5 5 6 6 5 5 5 5 5 6 7 7 7 7 7 7 7 8 8
1 0 0 0 1 1 1 1 2 2 1 1 1 2 1 2 2 2 3 3 2 3 4 4 5 5 6 6 6 5 5 5 5 5 6 6 6 7 7 7 8 8 8
2 2 1 1 1 1 1 1 1 2 2 2 2 1 0 1 2 1 2 3 4 4 4 4 5 6 6 6 6 6 6 6 6 6 6 6 6 7 7 7 8 8 9
2 3 1 1 1 1 1 1 1 1 2 2 2 3 2 2 2 2 2 3 5 5 5 5 5 6 6 6 6 6 6 6 7 7 6 6 7 7 8 9 8 8 8
2 2 1 1 2 2 2 2 2 2 3 3 3 3 4 4 4 4 4 4 5 5 5 6 6 6 6 6 6 6 7 7 6 7 7 7 7 7 8 8 8 9 8
1 2 2 2 3 3 3 3 3 3 4 4 4 3 1 3 4 4 5 5 5 5 5 5 6 6 5 5 6 6 7 7 7 7 7 8 7 8 8 8 8 8 8
2 2 2 2 3 2 2 3 3 3 4 4 4 4 4 5 5 5 5 5 5 5 5 5 6 6 6 6 6 6 6 7 7 8 9 9 8 8 8 8 9 9 8
2 2 2 2 2 3 3 3 3 3 3 4 4 4 4 4 5 5 6 6 5 5 5 6 6 7 8 7 7 6 6 8 9 8 10 10 9 9 8 8 9 10 9
2 2 2 2 3 3 3 3 4 4 4 4 4 5 5 5 5 5 5 5 5 5 6 6 5 6 8 9 8 8 9 10 9 9 9 8 10 10 9 9 8 8 9
3 3 3 3 3 3 3 4 4 5 5 5 5 5 5 6 6 6 6 5 6 5 6 6 6 7 8 8 9 9 7 8 9 11 9 7 8 8 9 8 9 8 9
Wind_Direction
193 194 199 199 205 210 215 219 220 222 218 220 221 224 226 229 226 225 236 230 234 240 242 243 246 256 253 248 244 245 243 247 253 254 231 199 197 208 191 208 212 213 204
192 193 198 201 204 208 212 217 218 219 221 220 222 223 226 230 230 231 239 241 238 239 240 246 251 246 244 254 250 246 243 242 248 246 236 216 211 209 204 217 218 221 220
189 193 194 198 201 209 216 217 219 220 224 227 228 233 235 236 235 237 243 248 247 246 243 243 247 247 246 245 248 249 246 239 240 241 235 222 221 212 210 221 225 228 227
189 192 193 198 203 206 210 213 217 220 223 229 230 234 239 242 239 240 239 244 249 250 248 245 244 245 246 245 242 245 249 247 238 240 236 227 222 209 218 225 227 224 229
187 193 196 198 201 206 209 215 216 218 220 221 226 232 241 243 245 241 242 241 245 249 248 248 247 248 258 256 258 247 242 244 239 238 237 235 231 216 225 229 236 235 231
187 194 194 198 202 207 210 214 214 217 223 222 230 232 237 240 211 219 247 250 249 248 249 248 244 236 233 233 251 258 256 246 245 245 241 239 237 233 232 235 235 237 242
185 190 192 201 208 212 212 210 212 216 221 226 230 231 234 239 206 209 232 249 251 251 250 250 254 241 228 237 223 224 238 246 251 253 255 252 246 235 232 234 233 239 249
180 185 187 195 202 203 205 206 205 207 213 220 229 235 237 242 209 223 234 241 251 252 250 247 250 253 245 242 237 234 238 234 232 237 248 254 254 245 234 239 244 243 246
183 190 194 196 201 199 203 205 204 201 212 221 228 233 240 248 211 218 238 245 247 250 249 247 249 248 231 234 240 241 244 243 227 224 236 242 246 240 237 241 238 239 247
185 192 195 195 202 203 204 206 202 198 207 220 226 232 240 253 213 210 235 247 252 254 249 245 236 246 230 223 238 241 244 246 247 236 232 233 235 230 221 231 236 240 246
163 161 167 172 184 189 191 201 210 208 206 219 228 230 236 245 209 194 222 250 260 262 264 260 253 201 221 231 245 250 251 258 252 245 239 237 235 233 229 227 234 240 244
143 148 155 163 173 166 174 190 212 221 211 214 222 239 241 236 232 203 209 233 265 264 267 271 276 206 228 237 243 251 258 259 253 248 245 242 239 238 237 234 234 239 247
137 145 156 164 163 169 187 194 207 217 233 231 231 239 249 250 218 194 209 229 243 258 275 295 291 256 243 240 231 234 241 247 250 250 250 249 247 244 242 239 236 237 243
148 160 175 177 178 176 206 204 224 236 246 251 260 265 265 261 274 272 258 254 243 253 272 264 239 240 243 252 246 235 240 246 248 251 254 256 256 249 242 240 242 239 243
177 187 197 193 185 196 193 201 229 271 303 273 267 273 281 277 311 335 292 279 281 280 280 276 279 273 267 261 257 252 245 242 245 251 254 252 251 250 248 245 244 246 246
227 221 221 218 199 206 190 178 98 148 117 187 290 298 303 326 325 297 282 281 284 271 267 272 276 275 274 276 272 260 252 250 253 255 254 254 254 252 251 248 245 246 247
300 282 262 257 244 247 235 243 246 195 180 200 221 242 265 297 302 292 284 275 258 237 257 273 275 277 278 278 276 271 267 263 258 258 256 254 254 254 253 252 249 248 251
294 64 333 35 16 349 311 293 291 300 298 309 217 156 209 254 275 285 286 281 277 256 271 275 278 279 281 285 286 286 283 280 268 266 264 260 257 256 256 254 252 253 256
19 28 26 19 4 348 326 313 317 328 325 334 350 25 140 247 228 233 244 286 293 288 285 286 286 289 289 290 292 289 285 282 280 274 270 270 264 258 257 257 256 248 252
54 71 21 353 10 18 16 358 352 345 329 328 335 344 348 327 322 316 287 294 294 297 298 295 295 296 296 294 293 292 288 284 280 274 273 270 267 265 262 260 260 258 254
36 70 126 12 21 14 12 4 359 348 339 331 328 356 343 317 316 319 315 315 311 310 309 308 306 305 306 305 303 303 301 296 291 289 284 275 271 268 266 264 261 259 258
37 43 35 26 21 15 6 4 2 360 353 347 340 343 318 311 323 322 319 318 313 310 309 307 304 308 315 313 312 311 308 307 307 302 295 290 285 278 273 268 265 264 262
18 30 35 28 18 21 358 11 8 0 352 345 340 338 333 332 327 324 321 315 311 310 309 307 306 311 319 316 313 309 310 314 314 308 302 294 288 285 282 276 273 271 264
15 19 22 24 15 5 1 357 353 347 341 336 335 332 330 327 324 326 324 320 319 320 322 318 314 319 324 321 316 319 336 333 319 305 301 296 290 282 279 277 277 276 270
10 11 6 5 6 6 3 0 359 355 350 347 343 338 333 332 330 330 330 328 325 324 324 320 319 322 327 330 334 339 348 343 328 318 301 292 290 289 285 279 276 276 273
19 16 13 9 9 10 3 1 359 354 348 347 345 341 337 333 332 334 335 335 330 324 322 320 328 332 329 331 345 350 345 334 325 317 305 296 294 292 293 287 282 274 273
Height
1522 1524 1526 1527 1529 1531 1532 1533 1534 1535 1536 1537 1538 1539 1539 1540 1540 1540 1541 1541 1541 1541 1542 1542 1542 1542 1542 1543 1543 1543 1543 1543 1543 1543 1543 1543 1542 1543 1543 1543 1544 1543 1543
1519 1521 1523 1525 1526 1528 1530 1531 1532 1533 1534 1535 1536 1536 1537 1537 1537 1538 1538 1539 1538 1538 1539 1539 1539 1539 1539 1539 1539 1539 1539 1539 1540 1539 1539 1539 1539 1539 1539 1540 1541 1541 1540
1517 1519 1521 1522 1524 1525 1527 1528 1529 1530 1531 1532 1533 1533 1534 1534 1534 1535 1535 1535 1536 1536 1536 1536 1536 1536 1536 1536 1535 1536 1536 1536 1536 1536 1536 1536 1536 1536 1536 1537 1537 1537 1537
1514 1516 1518 1519 1520 1522 1524 1525 1526 1527 1528 1529 1530 1530 1530 1531 1531 1531 1531 1532 1532 1532 1532 1532 1532 1532 1532 1532 1532 1532 1532 1532 1532 1533 1533 1533 1533 1532 1533 1533 1534 1533 1533
1511 1513 1515 1516 1518 1519 1521 1522 1523 1524 1525 1525 1526 1526 1527 1527 1528 1527 1528 1528 1528 1528 1528 1528 1528 1528 1528 1528 1529 1529 1528 1528 1529 1529 1530 1530 1530 1529 1529 1529 1530 1530 1529
1508 1510 1512 1514 1515 1516 1518 1519 1520 1521 1521 1522 1522 1523 1523 1524 1524 1523 1524 1524 1524 1524 1524 1524 1525 1524 1524 1524 1524 1524 1524 1524 1525 1526 1526 1526 1526 1526 1526 1526 1526 1526 1525
1505 1507 1509 1511 1512 1514 1515 1516 1516 1517 1518 1518 1519 1519 1519 1520 1519 1519 1520 1520 1520 1520 1520 1520 1521 1521 1520 1520 1520 1520 1520 1519 1520 1521 1522 1521 1521 1521 1521 1521 1521 1521 1521
1503 1505 1506 1508 1509 1510 1511 1512 1513 1514 1514 1515 1515 1516 1516 1516 1516 1516 1516 1516 1517 1516 1516 1516 1517 1516 1516 1516 1515 1515 1515 1515 1515 1515 1516 1516 1517 1516 1516 1516 1516 1516 1515
1500 1502 1503 1505 1506 1507 1508 1508 1509 1510 1511 1511 1512 1512 1512 1512 1512 1512 1512 1512 1512 1512 1512 1512 1512 1511 1511 1511 1511 1510 1509 1509 1510 1509 1510 1510 1510 1510 1511 1511 1511 1511 1510
1498 1499 1501 1502 1503 1504 1504 1506 1506 1507 1508 1509 1509 1509 1509 1508 1508 1508 1508 1508 1508 1508 1508 1507 1506 1507 1506 1506 1505 1505 1504 1504 1505 1504 1504 1504 1504 1504 1504 1504 1505 1505 1505
1496 1497 1498 1499 1500 1501 1501 1502 1503 1504 1505 1505 1505 1505 1505 1505 1505 1504 1504 1504 1504 1504 1504 1503 1502 1501 1501 1500 1500 1499 1499 1499 1499 1499 1499 1499 1499 1499 1498 1498 1498 1499 1499
1494 1495 1496 1497 1498 1499 1499 1499 1500 1501 1501 1501 1501 1501 1501 1501 1501 1500 1500 1500 1500 1499 1499 1499 1498 1496 1495 1495 1494 1494 1494 1494 1494 1494 1494 1493 1493 1493 1493 1492 1492 1492 1492
1492 1493 1493 1494 1495 1496 1497 1497 1497 1498 1499 1499 1498 1498 1498 1498 1497 1497 1496 1496 1495 1495 1494 1493 1492 1491 1490 1490 1489 1488 1488 1489 1489 1488 1488 1487 1487 1487 1487 1487 1486 1486 1486
1490 1491 1491 1492 1492 1493 1494 1495 1495 1495 1496 1496 1496 1495 1495 1495 1494 1493 1492 1492 1491 1490 1490 1489 1488 1487 1486 1485 1484 1483 1483 1483 1483 1483 1482 1482 1482 1482 1481 1481 1481 1480 1480
1489 1489 1489 1490 1490 1491 1491 1491 1492 1492 1492 1492 1492 1493 1492 1492 1491 1490 1489 1488 1487 1486 1485 1485 1484 1484 1483 1482 1480 1479 1478 1478 1477 1477 1476 1476 1476 1476 1476 1475 1475 1474 1474
1487 1487 1487 1488 1488 1488 1489 1489 1489 1489 1489 1489 1489 1489 1489 1488 1487 1486 1485 1484 1483 1482 1481 1480 1480 1480 1479 1478 1477 1475 1474 1473 1472 1472 1471 1471 1470 1470 1470 1470 1469 1468 1468
1485 1485 1485 1485 1486 1486 1486 1486 1486 1486 1486 1486 1485 1485 1485 1484 1483 1483 1482 1481 1480 1478 1477 1477 1477 1477 1476 1475 1473 1472 1470 1469 1467 1466 1466 1465 1465 1464 1464 1463 1463 1462 1462
1484 1483 1483 1483 1484 1484 1484 1484 1484 1483 1483 1483 1482 1482 1481 1480 1480 1479 1478 1477 1476 1475 1475 1474 1474 1473 1472 1471 1470 1468 1467 1465 1463 1462 1461 1460 1459 1458 1458 1457 1457 1456 1456
1483 1482 1482 1482 1482 1483 1483 1482 1482 1481 1481 1481 1480 1479 1479 1477 1477 1476 1475 1475 1474 1473 1472 1471 1471 1470 1469 1467 1466 1464 1463 1461 1459 1458 1457 1455 1454 1453 1452 1452 1451 1450 1450
1482 1481 1481 1482 1482 1481 1481 1480 1480 1480 1479 1479 1478 1478 1477 1476 1475 1473 1473 1472 1472 1471 1470 1469 1468 1466 1465 1464 1462 1460 1459 1457 1455 1454 1453 1451 1450 1448 1447 1446 1446 1445 1444
1482 1482 1481 1482 1482 1481 1480 1479 1479 1479 1478 1477 1477 1476 1474 1474 1473 1472 1471 1470 1469 1467 1466 1465 1464 1463 1461 1460 1458 1457 1455 1454 1452 1450 1448 1447 1445 1443 1442 1441 1440 1439 1439
1482 1481 1481 1481 1480 1479 1479 1479 1478 1477 1476 1476 1475 1474 1472 1472 1470 1469 1468 1467 1466 1465 1463 1462 1461 1460 1458 1456 1455 1453 1451 1449 1447 1446 1444 1442 1441 1439 1438 1436 1435 1434 1433
1481 1481 1480 1480 1479 1479 1478 1478 1477 1476 1475 1474 1473 1472 1471 1470 1468 1467 1466 1465 1463 1462 1460 1459 1457 1456 1454 1453 1451 1450 1448 1445 1443 1441 1440 1438 1436 1434 1432 1431 1430 1429 1428
1481 1480 1480 1480 1479 1479 1478 1478 1477 1476 1475 1474 1472 1471 1470 1468 1467 1465 1464 1462 1461 1459 1457 1456 1454 1453 1451 1449 1448 1446 1443 1441 1439 1437 1435 1433 1431 1429 1427 1426 1424 1423 1422
1481 1480 1480 1479 1479 1479 1478 1477 1476 1475 1474 1472 1471 1469 1468 1466 1465 1463 1462 1460 1458 1456 1454 1453 1451 1449 1447 1446 1443 1441 1439 1437 1435 1432 1430 1428 1426 1424 1422 1420 1419 1418 1417
1480 1480 1480 1479 1479 1478 1477 1476 1475 1474 1472 1471 1470 1468 1466 1465 1463 1461 1460 1458 1456 1454 1452 1450 1448 1446 1444 1442 1439 1437 1434 1432 1430 1427 1425 1423 1421 1419 1418 1416 1414 1413 1412